• In Österreich
  • Länderverzeichnis
  • Für 7 Tage
  • Wassertemperatur
  • Satellitenkarten
  • Wetterkarte
  • News
  • Widgets
  • user-avatar
    Anmelden

    Stündliche Wetter Gjirokaster

    Heute, 24 Februar, Samstag

    Zeit Temperatur Niederschläge Wind Luftdruck Luftfeuchtigkeit
    00:00 0°C° 0 mm 4 m/S 642 mmHg 81%
    01:00 0°C° 0 mm 5 m/S 642 mmHg 81%
    02:00 0°C° 0,7 mm 5 m/S 642 mmHg 83%
    03:00 0°C° 0,7 mm 5 m/S 642 mmHg 85%
    04:00 0°C° 0,7 mm 5 m/S 642 mmHg 87%
    05:00 -1°C° 1 mm 5 m/S 642 mmHg 89%
    06:00 -1°C° 1 mm 5 m/S 642 mmHg 90%
    07:00 -1°C° 0 mm 5 m/S 642 mmHg 90%
    08:00 0°C° 0,4 mm 4 m/S 643 mmHg 86%
    09:00 +1°C° 0,4 mm 4 m/S 643 mmHg 83%
    10:00 +2°C° 0,4 mm 3 m/S 643 mmHg 79%
    11:00 +3°C° 0,3 mm 3 m/S 644 mmHg 76%
    12:00 +4°C° 0,3 mm 3 m/S 644 mmHg 74%
    13:00 +4°C° 0,3 mm 3 m/S 644 mmHg 72%
    14:00 +4°C° 0,3 mm 3 m/S 644 mmHg 74%
    15:00 +5°C° 0,3 mm 2 m/S 644 mmHg 76%
    16:00 +4°C° 0,3 mm 2 m/S 643 mmHg 78%
    17:00 +4°C° 0,3 mm 2 m/S 643 mmHg 82%
    18:00 +3°C° 0,3 mm 2 m/S 643 mmHg 86%
    19:00 +3°C° 0,3 mm 1 m/S 643 mmHg 91%
    20:00 +3°C° 0,2 mm 1 m/S 644 mmHg 91%
    21:00 +1°C° 0,2 mm 2 m/S 644 mmHg 92%
    22:00 +1°C° 0,2 mm 2 m/S 644 mmHg 93%
    23:00 +1°C° 0,2 mm 2 m/S 644 mmHg 93%

    Morgen, 25 Februar, Sonntag

    Zeit Temperatur Niederschläge Wind Luftdruck Luftfeuchtigkeit
    00:00 +1°C° 0,2 mm 2 m/S 644 mmHg 93%
    01:00 +1°C° 0,2 mm 2 m/S 644 mmHg 93%
    02:00 +1°C° 0,3 mm 2 m/S 644 mmHg 93%
    03:00 0°C° 0,3 mm 3 m/S 644 mmHg 92%
    04:00 0°C° 0,3 mm 3 m/S 644 mmHg 92%
    05:00 0°C° 0,3 mm 3 m/S 644 mmHg 92%
    06:00 0°C° 0,3 mm 3 m/S 644 mmHg 93%
    07:00 0°C° 0,3 mm 3 m/S 644 mmHg 93%
    08:00 0°C° 0,5 mm 4 m/S 644 mmHg 89%
    09:00 +1°C° 0,5 mm 4 m/S 645 mmHg 85%
    10:00 +1°C° 0,5 mm 4 m/S 645 mmHg 81%
    11:00 +1°C° 0,5 mm 4 m/S 645 mmHg 81%
    12:00 +1°C° 0,5 mm 4 m/S 644 mmHg 81%
    13:00 +1°C° 0,5 mm 4 m/S 644 mmHg 81%
    14:00 +1°C° 1,6 mm 4 m/S 643 mmHg 84%
    15:00 0°C° 1,6 mm 4 m/S 643 mmHg 88%
    16:00 +1°C° 1,6 mm 3 m/S 642 mmHg 91%
    17:00 -1°C° 2,4 mm 4 m/S 642 mmHg 91%
    18:00 -1°C° 2,4 mm 4 m/S 642 mmHg 92%
    19:00 -1°C° 2,4 mm 4 m/S 641 mmHg 92%
    20:00 -1°C° 3,4 mm 5 m/S 641 mmHg 91%
    21:00 -2°C° 3,4 mm 5 m/S 640 mmHg 91%
    22:00 -2°C° 3,4 mm 5 m/S 640 mmHg 91%
    23:00 -2°C° 5,3 mm 5 m/S 639 mmHg 92%

    übermorgen, 26 Februar, Montag

    Zeit Temperatur Niederschläge Wind Luftdruck Luftfeuchtigkeit
    00:00 -3°C° 5,3 mm 4 m/S 639 mmHg 93%
    01:00 -2°C° 5,3 mm 3 m/S 638 mmHg 94%
    02:00 -2°C° 2,2 mm 3 m/S 638 mmHg 93%
    03:00 -2°C° 2,2 mm 3 m/S 637 mmHg 92%
    04:00 -4°C° 2,2 mm 4 m/S 637 mmHg 91%
    05:00 -4°C° 0,5 mm 3 m/S 637 mmHg 91%
    06:00 -4°C° 0,5 mm 3 m/S 637 mmHg 91%
    07:00 -4°C° 0,5 mm 3 m/S 637 mmHg 91%
    08:00 -4°C° 0,5 mm 3 m/S 638 mmHg 91%
    09:00 -4°C° 0,5 mm 3 m/S 638 mmHg 91%
    10:00 -2°C° 0,5 mm 3 m/S 638 mmHg 90%
    11:00 -2°C° 0,1 mm 3 m/S 639 mmHg 88%
    12:00 -1°C° 0,1 mm 3 m/S 639 mmHg 87%
    13:00 -1°C° 0,1 mm 2 m/S 639 mmHg 85%
    14:00 +1°C° 0 mm 2 m/S 639 mmHg 84%
    15:00 +1°C° 0 mm 2 m/S 639 mmHg 83%
    16:00 +1°C° 0 mm 2 m/S 639 mmHg 82%
    17:00 -1°C° 0,3 mm 2 m/S 639 mmHg 85%
    18:00 -1°C° 0,3 mm 2 m/S 639 mmHg 87%
    19:00 -2°C° 0,3 mm 3 m/S 639 mmHg 90%
    20:00 -2°C° 0,6 mm 3 m/S 640 mmHg 91%
    21:00 -3°C° 0,6 mm 4 m/S 640 mmHg 93%
    22:00 -3°C° 0,6 mm 4 m/S 640 mmHg 94%
    23:00 -3°C° 0,2 mm 4 m/S 640 mmHg 93%

    27 Februar, Dienstag

    Zeit Temperatur Niederschläge Wind Luftdruck Luftfeuchtigkeit
    00:00 -3°C° 0,2 mm 4 m/S 640 mmHg 91%
    01:00 -3°C° 0,2 mm 4 m/S 640 mmHg 90%
    02:00 -4°C° 0,2 mm 4 m/S 640 mmHg 89%
    03:00 -4°C° 0,2 mm 4 m/S 640 mmHg 89%
    04:00 -5°C° 0,2 mm 3 m/S 640 mmHg 88%
    05:00 -5°C° 0,1 mm 3 m/S 641 mmHg 87%
    06:00 -5°C° 0,1 mm 3 m/S 641 mmHg 86%
    07:00 -4°C° 0,1 mm 2 m/S 641 mmHg 86%
    08:00 -3°C° 0,1 mm 2 m/S 642 mmHg 83%
    09:00 -3°C° 0,1 mm 2 m/S 642 mmHg 80%
    10:00 -2°C° 0,1 mm 2 m/S 643 mmHg 77%
    11:00 -2°C° 0,1 mm 2 m/S 643 mmHg 79%
    12:00 -1°C° 0,1 mm 2 m/S 643 mmHg 80%
    13:00 -1°C° 0,1 mm 3 m/S 643 mmHg 81%
    14:00 -1°C° 0,3 mm 2 m/S 643 mmHg 84%
    15:00 -1°C° 0,3 mm 2 m/S 643 mmHg 87%
    16:00 -1°C° 0,3 mm 2 m/S 643 mmHg 91%
    17:00 -2°C° 0,4 mm 2 m/S 643 mmHg 92%
    18:00 -2°C° 0,4 mm 2 m/S 643 mmHg 93%
    19:00 -2°C° 0,4 mm 2 m/S 643 mmHg 94%
    20:00 -2°C° 0,2 mm 2 m/S 643 mmHg 94%
    21:00 -2°C° 0,2 mm 2 m/S 643 mmHg 94%
    22:00 -2°C° 0,2 mm 2 m/S 643 mmHg 94%
    23:00 -2°C° 0,1 mm 2 m/S 643 mmHg 94%

    28 Februar, Mittwoch

    Zeit Temperatur Niederschläge Wind Luftdruck Luftfeuchtigkeit
    00:00 -2°C° 0,1 mm 2 m/S 643 mmHg 93%
    01:00 -2°C° 0,1 mm 3 m/S 643 mmHg 93%
    02:00 -4°C° 0 mm 3 m/S 643 mmHg 92%
    03:00 -5°C° 0 mm 3 m/S 643 mmHg 91%
    04:00 -5°C° 0 mm 4 m/S 643 mmHg 90%
    05:00 -7°C° 0 mm 4 m/S 644 mmHg 89%
    06:00 -7°C° 0 mm 4 m/S 644 mmHg 88%
    07:00 -7°C° 0 mm 4 m/S 644 mmHg 87%
    08:00 -5°C° 0 mm 4 m/S 645 mmHg 80%
    09:00 -4°C° 0 mm 4 m/S 646 mmHg 72%
    10:00 -2°C° 0 mm 4 m/S 647 mmHg 65%
    11:00 -2°C° 0 mm 4 m/S 647 mmHg 62%
    12:00 -1°C° 0 mm 4 m/S 648 mmHg 60%
    13:00 -1°C° 0 mm 4 m/S 648 mmHg 58%
    14:00 -1°C° 0 mm 4 m/S 648 mmHg 59%
    15:00 -2°C° 0 mm 4 m/S 648 mmHg 61%
    16:00 -2°C° 0 mm 4 m/S 649 mmHg 62%
    17:00 -2°C° 0 mm 3 m/S 649 mmHg 66%
    18:00 -5°C° 0 mm 3 m/S 649 mmHg 69%
    19:00 -6°C° 0 mm 3 m/S 649 mmHg 73%
    20:00 -6°C° 0 mm 3 m/S 650 mmHg 71%
    21:00 -6°C° 0 mm 2 m/S 650 mmHg 69%
    22:00 -6°C° 0 mm 2 m/S 650 mmHg 67%
    23:00 -6°C° 0 mm 2 m/S 650 mmHg 65%

    1 März, Donnerstag

    Zeit Temperatur Niederschläge Wind Luftdruck Luftfeuchtigkeit
    00:00 -6°C° 0 mm 2 m/S 650 mmHg 62%
    01:00 -6°C° 0 mm 2 m/S 650 mmHg 60%
    02:00 -5°C° 0 mm 2 m/S 650 mmHg 58%
    03:00 -5°C° 0 mm 2 m/S 650 mmHg 57%
    04:00 -5°C° 0 mm 2 m/S 651 mmHg 55%
    05:00 -4°C° 0 mm 2 m/S 651 mmHg 56%
    06:00 -4°C° 0 mm 2 m/S 651 mmHg 57%
    07:00 -3°C° 0 mm 2 m/S 651 mmHg 58%
    08:00 -1°C° 0 mm 2 m/S 651 mmHg 58%
    09:00 0°C° 0 mm 3 m/S 652 mmHg 57%
    10:00 +2°C° 0 mm 3 m/S 652 mmHg 57%
    11:00 +3°C° 0 mm 3 m/S 652 mmHg 59%
    12:00 +3°C° 0 mm 3 m/S 652 mmHg 60%
    13:00 +4°C° 0 mm 4 m/S 652 mmHg 61%
    14:00 +4°C° 0 mm 4 m/S 651 mmHg 64%
    15:00 +4°C° 0 mm 4 m/S 651 mmHg 67%
    16:00 +3°C° 0 mm 4 m/S 651 mmHg 69%
    17:00 +1°C° 0 mm 4 m/S 651 mmHg 72%
    18:00 0°C° 0 mm 4 m/S 651 mmHg 74%
    19:00 -1°C° 0 mm 4 m/S 650 mmHg 76%
    20:00 -1°C° 0 mm 5 m/S 650 mmHg 76%
    21:00 -1°C° 0 mm 5 m/S 650 mmHg 75%
    22:00 -2°C° 0 mm 5 m/S 650 mmHg 75%
    23:00 -2°C° 0 mm 5 m/S 649 mmHg 74%
    Mehr zeigen